Location: *
(45.1961°N, 1.9694°E)
Time: 08:22:25
(UTC+00:00)

Cosmos 1980 Rocket - Pass Details

Date: 25 August 2019
Orbit: 829 x 850 km, 71.0° (Epoch: 16 September)

Event Time Altitude Azimuth Distance (km) Brightness Sun altitude
Rises 19:56:38 0° 340° (NNW) 3,393 6.2 -12.8°
Reaches altitude 10° 19:59:22 10° 350° (N) 2,458 5.2 -13.2°
Maximum altitude 20:04:21 31° 53° (NE) 1,431 3.2 -14.0°
Enters shadow 20:07:27 19° 101° (E) 1,897 3.5 -14.4°
